This is the latest recevied weather packets stored in our database for station/object SR2ATJ-13. If no packets are shown the sender has not sent any weather packets the latest 10 day(s).
| Time | Temp. | Humidity | Pressure | Rain* | Wind** | Luminosity | Snow |
|---|---|---|---|---|---|---|---|
| 1777841103 | 15.56° C | 42% | 1011.5 hPa | - | - | - | - |
| 1777839907 | 15.56° C | 43% | 1011.6 hPa | - | - | - | - |
| 1777839304 | 16.11° C | 41% | 1011.7 hPa | - | - | - | - |
| 1777838703 | 16.11° C | 39% | 1011.7 hPa | - | - | - | - |
| 1777838105 | 16.67° C | 38% | 1011.7 hPa | - | - | - | - |
| 1777837503 | 16.67° C | 38% | 1011.7 hPa | - | - | - | - |
| 1777836903 | 16.67° C | 38% | 1011.8 hPa | - | - | - | - |
| 1777835703 | 17.78° C | 35% | 1011.7 hPa | - | - | - | - |
| 1777835103 | 18.33° C | 32% | 1011.6 hPa | - | - | - | - |
| 1777834503 | 18.89° C | 32% | 1011.5 hPa | - | - | - | - |
| 1777833903 | 18.89° C | 32% | 1011.5 hPa | - | - | - | - |
| 1777833303 | 18.89° C | 32% | 1011.4 hPa | - | - | - | - |
| 1777832704 | 19.44° C | 32% | 1011.4 hPa | - | - | - | - |
| 1777832104 | 20° C | 31% | 1011.4 hPa | - | - | - | - |
| 1777831503 | 20.56° C | 29% | 1011.2 hPa | - | - | - | - |
| 1777830903 | 21.11° C | 29% | 1011.2 hPa | - | - | - | - |
| 1777830303 | 21.67° C | 28% | 1011.1 hPa | - | - | - | - |
| 1777829703 | 22.22° C | 27% | 1011.1 hPa | - | - | - | - |
| 1777829103 | 22.78° C | 26% | 1011 hPa | - | - | - | - |
| 1777828504 | 23.33° C | 26% | 1011 hPa | - | - | - | - |
| 1777827303 | 24.44° C | 24% | 1011 hPa | - | - | - | - |
| 1777826704 | 24.44° C | 24% | 1011.1 hPa | - | - | - | - |
| 1777826103 | 24.44° C | 24% | 1011.1 hPa | - | - | - | - |
| 1777825503 | 25° C | 23% | 1011 hPa | - | - | - | - |
| 1777824904 | 25° C | 24% | 1011.2 hPa | - | - | - | - |
* Rain since midnight (hover to see other rain measurements)
** Current wind speed in m/s (hover to see current wind gust speed)